{"data":{"norad_id":64271,"intl_designator":"2025-120R","name":"STARLINK-34342","alt_names":[],"object_type":"PAYLOAD","status":"ACTIVE","operator":null,"country":"US","launch_date":"2025-06-04","launch_site_code":"AFWTR","launch_vehicle":null,"mission":null,"orbit_class":"UNKNOWN","rcs_meters":null,"size_class":null,"mass_kg":null,"dimensions":null,"purposes":["comms"],"wikipedia_slug":null,"has_3d_model":false,"image_url":null,"decayed_at":null,"tle_current":{"epoch":"2026-05-25T05:30:09.950976Z","epoch_age_seconds":69383,"freshness":"FRESH","line1":"1 64271U 25120R   26145.22928184  .00019781  00000+0  67806-3 0  9999","line2":"2 64271  53.1575 121.2476 0001195  75.3724 284.7410 15.30207100 55583","mean_motion":15.302071,"eccentricity":0.0001195,"inclination_deg":53.1575,"raan_deg":121.2476,"arg_perigee_deg":75.3724,"mean_anomaly_deg":284.741,"bstar":0.00067806,"rev_number":5558,"period_min":94.104909067537,"perigee_km":474.37489714209,"apogee_km":476.01284322006,"semimajor_km":6853.3308701811,"source":"CELESTRAK","updated_at":"2026-05-25T13:38:20.360467Z"}}}